TimeCDT,TemperatureF,Dew PointF,Humidity,Sea Level PressureIn,VisibilityMPH,Wind Direction,Wind SpeedMPH,Gust SpeedMPH,PrecipitationIn,Events,Conditions,WindDirDegrees,DateUTC
12:37 AM,19.4,15.8,86,29.99,3.0,WNW,10.4,-,0.00,Snow,Light Snow,290,2013-03-13 05:37:00
1:06 AM,19.4,15.8,86,29.99,3.0,WNW,10.4,-,0.00,Snow,Light Snow,290,2013-03-13 06:06:00
1:54 AM,18.0,14.0,84,30.08,5.0,WNW,10.4,-,0.00,Snow,Light Snow,300,2013-03-13 06:54:00
2:54 AM,17.1,12.9,84,30.09,9.0,WNW,6.9,-,0.00,,Overcast,300,2013-03-13 07:54:00
3:22 AM,17.6,12.2,79,30.03,4.0,WNW,6.9,-,0.00,Snow,Light Snow,300,2013-03-13 08:22:00
3:54 AM,17.1,12.9,84,30.10,10.0,WNW,9.2,-,0.00,,Overcast,300,2013-03-13 08:54:00
4:15 AM,15.8,10.4,79,30.04,10.0,WNW,10.4,-,N/A,,Overcast,300,2013-03-13 09:15:00
4:54 AM,15.1,10.0,80,30.13,10.0,WNW,10.4,-,N/A,,Clear,300,2013-03-13 09:54:00
5:54 AM,16.0,10.0,77,30.15,10.0,WNW,11.5,-,N/A,,Overcast,300,2013-03-13 10:54:00
6:54 AM,14.0,8.1,77,30.17,10.0,WNW,9.2,-,N/A,,Clear,300,2013-03-13 11:54:00
7:54 AM,14.0,6.1,71,30.20,10.0,NW,9.2,-,N/A,,Clear,310,2013-03-13 12:54:00
8:54 AM,16.0,6.1,65,30.23,10.0,NW,8.1,-,N/A,,Clear,310,2013-03-13 13:54:00
9:54 AM,19.0,7.0,59,30.25,10.0,NW,8.1,-,N/A,,Clear,310,2013-03-13 14:54:00
10:54 AM,23.0,7.0,50,30.26,10.0,NNW,9.2,18.4,N/A,,Clear,330,2013-03-13 15:54:00
11:54 AM,25.0,3.9,41,30.27,10.0,NNW,16.1,21.9,N/A,,Clear,330,2013-03-13 16:54:00
12:54 PM,27.0,5.0,39,30.27,10.0,NNW,10.4,20.7,N/A,,Clear,330,2013-03-13 17:54:00
1:54 PM,28.9,1.9,32,30.27,10.0,WNW,10.4,-,N/A,,Clear,300,2013-03-13 18:54:00
2:54 PM,30.9,1.9,29,30.26,10.0,NW,11.5,-,N/A,,Clear,320,2013-03-13 19:54:00
3:54 PM,30.9,3.9,32,30.26,10.0,WNW,13.8,-,N/A,,Clear,290,2013-03-13 20:54:00
4:54 PM,30.9,5.0,33,30.27,10.0,West,9.2,-,N/A,,Clear,280,2013-03-13 21:54:00
5:54 PM,28.9,7.0,40,30.28,10.0,West,10.4,-,N/A,,Clear,270,2013-03-13 22:54:00
6:54 PM,27.0,5.0,39,30.28,10.0,West,11.5,-,N/A,,Clear,270,2013-03-13 23:54:00
7:54 PM,24.1,6.1,46,30.30,10.0,West,10.4,-,N/A,,Clear,280,2013-03-14 00:54:00
8:54 PM,23.0,5.0,46,30.29,10.0,WNW,6.9,-,N/A,,Clear,290,2013-03-14 01:54:00
9:54 PM,21.9,5.0,48,30.30,10.0,WNW,6.9,-,N/A,,Clear,300,2013-03-14 02:54:00
10:54 PM,19.9,5.0,52,30.30,10.0,NW,5.8,-,N/A,,Clear,320,2013-03-14 03:54:00
11:54 PM,19.9,5.0,52,30.30,10.0,NW,6.9,-,N/A,,Clear,310,2013-03-14 04:54:00